Location: Casilda
(33.0440°S, 61.1680°W)
Time: 15:41:38
(UTC-03:00)

ISS - Pass Details

Date: 19 June 2021
Orbit: 417 x 422 km, 51.6° (Epoch: 16 June)

Event Time Altitude Azimuth Distance (km) Brightness Sun altitude
Rises 18:29:03 0° 335° (NNW) 2,357 0.9 -5.3°
Reaches altitude 10° 18:31:16 10° 346° (NNW) 1,502 -0.4 -5.7°
Maximum altitude 18:34:18 31° 50° (NE) 767 -2.6 -6.3°
Drops below altitude 10° 18:37:23 10° 114° (ESE) 1,522 -1.6 -6.9°
Enters shadow 18:37:36 - 115° (ESE) 1,604 -1.5 -7.0°
